Regional Weather Roundup
Issued by NWS

Home | Current Version | Previous Version | Text Only | Print | Product List | Glossary Off
Versions: 1 2 3 4 5 6 7 8 9 10 11 12 13 14 15 16 17 18 19 20 21 22 23 24 25 26 27 28 29 30 31 32 33 34 35 36 37 38 39 40 41 42 43 44 45 46 47 48 49 50

000
ASUS44 KMEG 121410
RWRTN
TENNESSEE HOURLY STATE WEATHER ROUNDUP
NATIONAL WEATHER SERVICE MEMPHIS TN
900 AM CDT SAT JUL 12 2014

TNZ002-004-019-021-049-052-054-088>092-121500-
WEST TENNESSEE

CITY           SKY/WX    TMP DP  RH WIND       PRES   REMARKS
MEMPHIS INTL   MOSUNNY   83  73  72 W3        30.20R
NWS MEMPHIS      N/A     81 N/A N/A MISG        N/A
JACKSON        SUNNY     82  71  69 CALM      30.20R
DYERSBURG      SUNNY     82  66  57 W5        30.19S
UNION CITY     SUNNY     81  73  78 CALM      30.18S
PARIS          MOSUNNY   80  69  69 CALM      30.21R
LEXINGTON      SUNNY     81  72  74 CALM      30.19R
SAVANNAH       SUNNY     80  74  82 CALM      30.20S
$$

TNZ008-025-027-028-033-062-065-066-121500-
NORTH MIDDLE TENNESSEE

CITY           SKY/WX    TMP DP  RH WIND       PRES   REMARKS
NASHVILLE      MOSUNNY   81  67  62 CALM      30.20S
DICKSON        SUNNY     84  64  51 CALM      30.20R
PORTLAND       SUNNY     81  64  57 S6        30.19R
CLARKSVILLE    MOSUNNY   77  67  71 CALM      30.19R
LEBANON        SUNNY     80  66  62 CALM      30.19R
SMYRNA         SUNNY     81  67  62 CALM      30.21R
MURFREESBORO   SUNNY     80  66  62 CALM      30.20R
COOKEVILLE     SUNNY     79  68  69 CALM      30.22S
LIVINGSTON     SUNNY     81  58  45 SW3       30.24
GALLATIN       SUNNY     77  69  76 CALM      30.21R
CROSSVILLE     SUNNY     78  67  68 VRB3      30.27R
$$

TNZ061-075-076-078-094-096-097-121500-
SOUTH MIDDLE TENNESSEE

CITY           SKY/WX    TMP DP  RH WIND       PRES   REMARKS
LEWISBURG      MOSUNNY   79  67  66 CALM      30.20R
FAYETTEVILLE   MOSUNNY   79  70  73 S9        30.22R
TULLAHOMA      SUNNY     79  66  65 CALM      30.24R
WINCHESTER     SUNNY     79  70  73 CALM      30.22R
MCMINNVILLE    SUNNY     81  72  74 CALM      30.23R
COLUMBIA       SUNNY     81  72  74 CALM      30.19S
SHELBYVILLE    SUNNY     81  70  69 S3        30.22S
$$

TNZ017-018-042-046-047-121500-
NORTHEAST TENNESSEE

CITY           SKY/WX    TMP DP  RH WIND       PRES   REMARKS
TRI CITIES     SUNNY     78  65  63 CALM      30.24F
ELIZABETHTON   SUNNY     77  66  69 CALM      30.25F
$$

TNZ012-013-036-069-073-074-121500-
CENTRAL EAST TENNESSEE

CITY           SKY/WX    TMP DP  RH WIND       PRES   REMARKS
KNOXVILLE      MOSUNNY   79  68  69 S5        30.22R
OAK RIDGE      SUNNY     78  67  68 CALM      30.23S
GATLINBURG     SUNNY     81  64  57 VRB3      30.22S
MORRISTOWN     SUNNY     79  66  65 CALM      30.24S
$$

TNZ083-085-099-121500-
SOUTHEAST TENNESSEE

CITY           SKY/WX    TMP DP  RH WIND       PRES   REMARKS
CHATTANOOGA    MOSUNNY   79  68  69 CALM      30.22R
$$

SKY/WX REPORTED AS FAIR MEANS FEW OR NO CLOUDS BELOW
12 THOUSAND FEET.




USA.gov is the U.S. government's official web portal to all federal, state and local government web resources and services.